Miscellaneous Local Product
Issued by NWS North Platte, NE

Home | Current Version | Previous Version | Text Only | Print | Product List | Glossary On
Versions: 1 2 3 4 5 6 7 8 9 10 11 12 13 14 15 16 17 18 19 20 21 22 23 24 25 26 27 28 29 30 31 32 33 34 35 36 37 38 39 40 41 42 43 44 45 46 47 48 49 50
732
AXUS43 KLBF 262210
MISLBF


WESTERN AND NORTH CENTRAL NEBRASKA HOURLY WEATHER ROUNDUP
NATIONAL WEATHER SERVICE NORTH PLATTE NE
500 PM CDT MON SEP 26 2016

NOTE: "FAIR" INDICATES FEW OR NO CLOUDS BELOW 12,000 FEET WITH NO
SIGNIFICANT WEATHER AND/OR OBSTRUCTIONS TO VISIBILITY.

NOTE: STATIONS NOT REPORTING VARIABLES SUCH AS SKY/WEATHER OR
PRESSURE ARE PROVIDED BY RAWS AND APRS NETWORKS AND ARE NOT UNDER
NATIONAL WEATHER SERVICE QUALITY CONTROL.

...OBSERVATIONS IN AND NEAR THE EASTERN PANHANDLE OF NEBRASKA...

CITY           SKY/WX    TMP DP  RH WIND       PRES   REMARKS
PINE RIDGE     SUNNY     75  41  29 NW9       30.21F
CHADRON        SUNNY     74  39  28 NW14G25   30.22F
ALLIANCE       SUNNY     73  40  30 NW16G26   30.23F
SIDNEY         LGT RAIN  74  38  27 N15G22    30.29F
CRESCENT LAKE    N/A     75  40  29 NW12        N/A
$$

...OBSERVATIONS IN NORTHERN NEBRASKA AND FAR SOUTHERN SOUTH DAKOTA...

CITY           SKY/WX    TMP DP  RH WIND       PRES   REMARKS
WINNER         FAIR      76  38  25 NW17G24   30.14F
VALENTINE      SUNNY     74  36  25 NW14      30.16F
THEDFORD       SUNNY     76  40  27 NW8       30.19F
AINSWORTH      SUNNY     73  40  30 NW13G28   30.17F
O`NEILL        SUNNY     74  33  21 NW18G24   30.14F
ORD            SUNNY     75  37  25 NW16G24   30.13F
BROKEN BOW     SUNNY     77  38  24 N12G23    30.16F
VALENTINE NWR    N/A     74  39  27 N10G20      N/A
BUTTE            N/A     71  40  32 W16G23      N/A
HALSEY           N/A     77  38  24 NW9G18      N/A
EWING            N/A     73  44  35 NW10G17     N/A
$$

...OBSERVATIONS IN SOUTHWEST NEBRASKA AND FAR NORTHEAST COLORADO...

CITY           SKY/WX    TMP DP  RH WIND       PRES   REMARKS
HOLYOKE        FAIR      79  36  21 NW14G20   30.25F
IMPERIAL       SUNNY     78  34  20 N16G24    30.22F
OGALLALA       SUNNY     79  37  22 N14       30.22F
NORTH PLATTE   SUNNY     77  41  27 NW14      30.19F
MCCOOK         SUNNY     80  39  23 NW13      30.18F
LEXINGTON      SUNNY     78  38  24 N12G20    30.17F
STAPLETON        N/A     76  43  31 CALM        N/A
GOTHENBURG       N/A     76  35  23 NW9         N/A
CALLAWAY         N/A     76  40  27 N14         N/A
$$

...OBSERVATIONS IN CENTRAL LINCOLN COUNTY AREA...

CITY           SKY/WX    TMP DP  RH WIND       PRES   REMARKS
N.P. AIRPORT   SUNNY     77  41  27 NW14      30.19F
N.P. DOWNTOWN    N/A     76  41  28 NW5G12      N/A
N.P. SOUTHEAST   N/A     76  40  27 N3G12       N/A
N.P. HILLCREST   N/A     76  40  27 NW12        N/A
$$

...SOME OBSERVATIONS FROM AROUND THE REGION...

CITY           SKY/WX    TMP DP  RH WIND       PRES   REMARKS
DENVER         MOSUNNY   74  29  19 E8        30.31F
LARAMIE        SUNNY     69  33  26 N5        30.39F
CHEYENNE       SUNNY     72  33  24 NW14      30.33F
SCOTTSBLUFF    SUNNY     77  41  27 NW12G17   30.26F
RAPID CITY     SUNNY     72  40  31 N23G30    30.21S
BISMARCK       SUNNY     69  35  28 NW18G25   30.11F
PIERRE         SUNNY     73  37  27 NW17G25   30.11F
SIOUX FALLS    MOSUNNY   72  36  26 NW17G29   30.04F
OMAHA          MOSUNNY   77  40  26 W10       30.09F
GRAND ISLAND   SUNNY     78  38  23 NW13G23   30.13F
KANSAS CITY    SUNNY     73  43  33 W9        30.15F
WICHITA        MOSUNNY   75  41  29 VRB7      30.21F
OKLAHOMA CITY  CLOUDY    75  34  22 N15       30.19F
DALLAS         CLOUDY    66  58  75 NE8       30.12F
AMARILLO       SUNNY     74  35  24 E8        30.31F
DODGE CITY     SUNNY     79  30  16 VRB3      30.22F
HAYS           SUNNY     79  34  19 NW6       30.18F
GOODLAND       SUNNY     79  37  22 NW13      30.23F
$$




USA.gov is the U.S. government's official web portal to all federal, state and local government web resources and services.